Temperature
16 16 17 17 20 21 21 20 20 19 19 17 17 18 19 19 19 18 14 14 14 14 14 14 14 14 14 14 14 14 14 14 14 14 14 14 14 14 15 14 15 14 14 14 14 14 15 15 15
16 16 16 18 20 20 20 20 19 19 18 16 16 17 18 16 14 13 13 14 14 14 14 14 14 14 14 14 14 14 14 14 14 14 14 14 14 14 14 14 14 14 14 14 14 14 14 14 14
15 16 17 19 19 20 20 19 19 17 16 16 16 15 16 15 13 13 13 13 13 13 13 14 14 13 13 14 14 14 14 14 14 14 14 14 14 14 14 14 14 14 14 14 14 14 14 14 14
15 16 17 19 19 19 19 19 18 17 16 15 16 16 13 12 12 12 13 13 13 13 13 13 13 13 13 13 13 13 13 14 13 13 14 14 14 14 14 14 14 14 14 14 14 14 14 14 14
15 17 18 18 18 18 18 17 16 18 17 15 16 16 14 12 12 12 13 13 12 12 13 13 13 13 13 13 13 13 13 13 13 13 13 13 13 13 14 14 14 14 14 14 14 14 14 14 14
15 17 18 18 18 17 17 16 16 17 16 15 15 15 13 12 12 12 12 12 12 12 12 12 13 13 13 13 13 13 13 13 13 13 13 13 13 13 13 13 13 13 13 13 13 13 13 14 14
16 17 18 18 17 17 17 15 16 17 16 15 14 15 13 11 11 12 12 12 12 12 12 12 12 12 12 12 13 13 13 13 13 13 13 13 13 13 13 13 13 13 13 13 13 13 13 13 13
14 17 16 17 17 17 16 14 14 15 15 12 13 15 13 11 11 11 11 11 12 12 12 12 12 12 12 12 12 12 12 12 12 12 12 12 13 13 12 12 12 13 13 13 12 12 13 13 13
13 16 16 17 17 16 15 14 13 12 12 11 11 12 11 11 11 11 11 11 11 11 11 12 12 12 12 12 12 12 12 12 12 12 12 12 12 12 12 12 12 12 12 12 12 12 12 12 12
14 15 16 16 16 16 14 14 13 13 13 12 11 11 11 11 11 11 11 11 11 11 11 11 11 11 11 11 12 12 12 12 12 12 12 12 12 12 12 12 12 12 12 12 12 12 12 12 12
14 14 14 14 13 13 13 13 12 14 14 13 12 11 10 10 10 10 10 10 10 11 11 11 11 11 11 11 11 11 11 11 11 11 11 11 11 11 11 11 11 12 12 11 12 11 11 11 11
13 13 12 13 11 12 12 12 12 12 13 11 11 10 10 10 10 10 10 10 10 10 10 10 10 11 11 11 11 11 11 11 11 11 11 11 11 11 11 11 11 11 11 11 11 11 11 11 11
12 12 11 11 11 11 11 11 11 11 10 10 10 10 10 10 10 9 9 9 9 10 10 10 10 10 10 10 10 10 10 10 10 11 11 10 10 11 11 11 11 11 11 11 11 11 11 11 10
12 11 11 11 11 10 11 11 11 11 9 9 9 9 9 9 9 9 9 9 9 9 9 10 10 10 10 10 10 10 10 10 10 10 10 10 10 10 10 10 10 10 10 10 10 10 10 10 10
10 11 12 11 11 11 11 11 11 10 9 9 9 8 8 8 8 9 9 9 9 9 9 9 9 9 10 10 10 10 10 9 10 10 10 10 10 10 10 9 9 10 10 10 10 10 10 10 10
11 12 12 11 11 10 11 12 12 10 9 9 9 8 8 8 8 8 8 8 8 8 9 9 9 9 9 9 9 9 9 9 9 9 9 9 9 9 9 9 9 9 9 9 9 9 9 9 9
11 12 12 11 11 10 11 12 12 9 9 9 9 8 8 8 8 8 8 8 8 8 8 8 8 8 8 9 8 8 8 8 8 8 8 8 8 8 8 8 8 8 8 8 8 8 8 8 8
11 12 11 11 10 10 10 11 11 9 8 9 9 8 8 7 7 7 8 8 8 8 8 8 8 8 8 8 8 8 8 8 8 8 8 8 8 8 8 8 8 8 8 8 8 8 7 7 8
10 11 11 11 9 9 10 10 11 10 9 9 9 8 8 7 7 7 7 7 7 7 7 7 7 7 7 7 7 7 7 7 7 7 7 7 7 7 7 7 7 7 7 7 7 7 6 7 7
9 10 10 9 8 9 9 10 11 10 9 9 9 8 8 7 7 6 6 7 7 7 7 7 7 7 7 7 7 7 7 7 7 7 7 6 7 7 7 6 6 6 6 6 6 6 6 6 6
9 9 9 9 8 8 9 10 10 10 9 8 8 8 7 7 6 6 6 6 6 6 6 6 6 6 6 6 6 6 6 6 6 6 6 6 6 6 6 6 6 6 6 5 5 5 5 5 5
9 8 8 8 9 9 9 10 11 10 9 9 8 7 7 6 6 6 6 6 6 6 6 6 6 6 6 6 6 6 6 5 5 6 6 5 5 5 5 5 5 5 5 5 5 4 4 4 4
8 7 7 8 8 8 8 9 11 9 9 9 9 7 7 6 6 6 5 6 6 6 6 6 5 5 5 5 5 5 5 5 5 5 5 5 5 5 5 5 5 4 4 4 4 4 4 3 3
6 7 7 7 7 7 8 9 11 10 10 10 8 7 6 5 5 5 5 5 6 6 6 6 5 5 5 5 5 5 5 4 4 4 4 4 4 4 4 4 4 4 4 3 3 3 3 3 3
6 7 7 7 7 9 8 8 10 10 9 8 8 7 6 5 5 5 5 5 5 5 5 5 5 5 4 4 4 4 4 4 4 4 4 4 4 4 4 4 4 3 3 3 3 3 3 2 2
6 7 8 8 9 9 7 8 10 8 6 6 5 5 5 5 4 4 4 5 5 5 5 5 4 4 4 4 4 4 4 4 3 3 3 3 3 3 3 3 3 3 3 3 2 2 2 2 2
6 6 7 7 6 7 9 8 8 7 6 6 5 5 4 4 4 4 4 4 4 4 4 4 4 4 4 4 3 3 3 3 3 3 3 3 3 3 3 3 2 2 2 2 2 2 2 2 1
6 6 6 6 7 8 9 8 9 8 8 7 6 5 4 4 3 3 4 4 4 4 4 4 4 4 3 3 3 3 3 3 3 2 2 2 2 2 2 2 2 2 2 2 2 1 1 1 1
4 4 5 6 6 8 8 9 8 8 7 7 6 5 4 4 3 3 3 4 4 4 4 4 4 3 3 3 2 2 2 2 2 2 2 2 2 2 2 2 2 1 1 1 1 1 1 1 0
4 5 5 6 5 5 7 9 6 6 6 5 5 4 4 3 3 3 3 3 3 3 4 4 3 3 3 2 2 2 2 2 2 2 1 1 1 1 1 1 1 1 1 1 1 0 0 -0 -0
Wind_Speed
6 4 2 2 3 4 6 4 2 4 3 2 1 1 2 1 1 2 3 3 2 3 4 5 5 7 8 8 9 9 9 10 10 10 11 11 11 11 11 11 11 11 11 11 11 11 11 12 12
4 2 2 2 5 7 6 5 5 3 3 3 2 1 2 2 3 3 2 3 2 3 4 5 6 7 9 10 9 9 9 9 10 10 10 10 11 11 11 11 11 11 11 11 12 12 11 11 11
1 2 2 3 5 7 5 4 4 3 3 2 2 1 1 2 2 2 3 2 2 3 4 6 7 8 9 10 10 9 9 10 10 10 9 10 10 10 10 11 10 11 11 11 11 12 11 11 10
2 2 2 5 8 6 3 2 3 5 3 1 2 3 2 3 2 2 3 2 3 4 4 7 7 8 8 9 9 9 9 9 9 9 9 10 9 10 10 10 10 10 10 10 10 10 10 11 10
1 3 5 7 8 5 3 2 4 4 3 2 3 2 3 3 3 2 2 3 4 4 4 6 7 7 8 8 9 9 9 9 9 9 9 9 10 10 10 10 10 10 10 10 10 10 9 10 9
3 3 7 9 9 6 4 4 4 4 3 2 3 3 3 3 3 3 3 4 4 4 4 6 7 7 7 8 8 9 9 9 9 9 9 9 9 9 9 9 9 9 9 9 10 10 10 9 9
3 4 8 9 8 8 5 4 5 5 5 3 2 3 3 4 3 3 3 4 4 5 4 5 6 6 7 8 9 8 8 8 9 9 9 9 9 9 9 8 8 8 9 9 9 9 9 9 9
2 3 6 8 9 8 5 4 2 3 3 2 2 3 3 4 4 3 4 4 4 4 4 4 5 5 5 7 9 9 9 9 9 10 9 9 9 9 8 8 8 8 8 8 8 8 8 8 8
3 6 9 9 8 6 5 4 2 1 3 2 1 1 2 5 5 4 3 3 3 3 3 3 4 4 5 6 8 9 9 9 9 9 9 7 6 6 7 8 8 7 8 8 7 7 7 6 6
5 8 9 5 4 4 5 4 4 4 4 3 2 2 4 5 5 4 3 3 2 2 2 3 3 4 4 5 6 6 6 6 6 5 5 5 5 5 6 8 9 8 8 7 7 6 5 3 3
4 6 5 4 2 3 4 3 3 5 5 5 5 5 6 5 4 4 3 2 2 1 2 2 2 3 4 4 4 4 4 4 5 5 5 4 4 4 4 4 4 5 5 4 3 3 3 3 2
3 4 4 3 2 2 4 4 4 6 4 1 3 5 7 7 5 4 4 3 2 2 2 2 2 3 3 4 4 4 3 4 4 4 4 3 3 2 3 2 3 3 2 3 2 2 3 3 3
5 3 3 3 2 2 3 5 6 7 4 1 3 5 6 6 5 4 3 3 3 2 2 2 2 3 3 3 3 3 3 3 4 4 3 3 2 2 2 2 2 2 2 2 2 2 2 2 2
3 3 3 3 4 3 5 6 5 6 3 3 4 6 6 6 6 5 4 3 3 3 2 2 2 3 3 3 3 3 3 4 4 4 4 3 3 2 1 2 2 2 2 2 2 2 2 1 2
3 3 3 4 4 4 4 7 9 7 4 5 5 5 5 5 5 5 5 4 4 4 3 3 3 3 3 3 3 3 3 3 4 4 4 4 3 2 2 1 1 2 2 2 2 2 1 1 1
4 5 6 4 3 4 7 11 7 5 6 7 7 6 5 5 5 4 4 4 4 4 4 3 3 3 3 3 3 3 3 3 3 4 4 3 3 2 2 1 1 2 2 2 1 1 1 1 2
5 7 8 5 3 3 7 10 5 4 7 8 7 7 6 5 5 4 4 4 4 4 4 4 4 4 4 4 3 3 3 3 3 3 3 3 3 2 2 1 2 2 2 2 1 2 2 2 2
6 7 7 7 3 5 9 11 6 5 7 8 7 7 6 6 5 4 3 3 4 4 4 4 4 4 4 4 3 3 3 2 3 3 3 3 2 2 2 2 2 2 1 1 1 2 2 2 2
4 6 8 6 2 5 10 12 10 8 9 9 8 8 7 7 5 3 3 3 4 4 4 4 4 4 4 3 3 2 2 1 1 2 2 2 2 2 2 2 1 1 1 1 2 2 2 2 2
6 7 7 4 2 5 9 13 11 10 10 10 10 9 8 7 6 5 4 4 4 4 4 4 5 5 5 3 2 2 2 1 1 1 1 1 1 2 1 1 1 1 1 1 1 1 1 2 2
8 9 7 5 3 4 7 9 9 8 8 8 9 9 8 8 7 6 5 5 5 5 5 4 5 5 4 4 3 2 2 1 1 1 0 0 0 1 0 0 0 0 1 1 1 2 2 2 2
8 6 6 6 5 5 4 7 7 6 7 8 8 8 8 7 7 7 6 6 5 5 5 5 5 5 5 5 4 4 3 2 2 2 1 1 1 1 1 2 1 1 1 2 2 2 2 2 2
4 2 4 5 6 6 6 7 7 5 8 8 8 8 7 7 7 7 7 6 6 5 5 5 5 5 5 5 5 5 3 2 2 2 2 2 2 2 2 2 2 2 2 2 3 2 3 3 3
4 3 2 3 4 7 8 8 7 5 6 6 6 6 6 6 6 6 5 5 5 4 5 5 6 6 5 5 5 5 4 3 3 3 3 2 2 2 3 2 2 2 2 3 3 3 4 4 4
6 4 3 4 5 6 4 7 8 4 5 5 5 5 5 5 5 5 5 5 5 5 5 5 6 6 5 5 5 5 4 4 4 4 4 3 2 2 3 2 3 3 3 3 3 4 4 5 5
8 7 5 5 5 3 4 7 5 2 3 4 4 5 4 4 4 4 4 5 5 5 5 6 6 5 5 5 5 4 4 3 3 4 3 4 3 3 3 3 3 4 4 3 4 4 5 5 5
5 7 4 2 2 4 6 5 6 4 5 4 4 4 4 4 4 4 4 4 4 5 5 6 6 6 6 6 5 5 4 4 4 3 3 3 3 3 3 3 4 4 4 4 4 4 5 5 5
3 4 4 5 4 6 6 7 5 4 5 4 4 4 4 3 3 3 3 3 4 4 5 5 6 6 6 6 5 4 4 4 4 3 4 3 3 3 4 4 4 4 4 4 4 4 4 5 5
6 5 5 5 4 5 5 4 2 4 3 4 4 4 3 3 3 3 3 3 3 4 4 5 5 6 5 5 5 5 4 4 4 4 4 4 4 4 4 4 4 4 4 4 5 5 5 5 6
6 7 8 6 6 5 5 5 1 2 2 3 3 3 2 3 3 3 3 2 3 3 4 4 5 5 5 5 5 5 5 4 5 4 4 4 4 4 4 5 5 5 5 5 5 6 5 6 7
Wind_Direction
329 317 270 238 216 218 227 201 188 168 164 102 71 200 166 161 302 85 70 56 55 139 145 142 122 117 118 112 106 100 97 95 93 92 91 90 92 91 88 85 85 87 86 84 83 83 82 82 81
326 305 234 226 232 224 216 201 194 170 121 120 108 144 144 100 42 61 69 21 39 132 143 137 119 117 115 111 106 102 99 98 97 94 93 91 89 89 88 84 83 84 84 82 82 85 83 81 79
302 296 231 208 227 234 207 169 174 131 133 166 141 80 39 84 65 59 15 1 82 119 129 116 111 111 112 112 110 107 101 98 96 95 95 93 91 88 86 82 81 83 82 82 82 84 83 79 76
228 187 209 224 222 230 232 151 150 153 151 159 166 129 104 52 23 6 359 63 93 103 112 111 104 108 110 113 114 111 105 101 97 96 96 95 93 91 87 84 82 83 83 83 81 82 83 80 75
226 203 204 223 228 223 223 209 177 185 168 159 177 152 126 75 36 32 57 90 95 97 91 105 102 104 108 115 114 110 107 104 102 97 94 93 92 92 87 83 82 81 81 81 80 80 82 82 79
189 207 220 224 220 214 207 197 194 197 178 166 176 164 125 90 64 60 78 86 89 94 90 98 97 97 100 105 109 108 106 103 101 95 91 90 92 90 87 83 81 81 80 80 80 80 79 79 81
210 211 228 227 221 217 201 187 208 202 191 186 190 168 143 120 83 92 99 92 86 84 85 92 106 107 103 104 102 102 102 101 99 96 94 92 88 87 84 81 79 80 79 79 78 77 76 77 77
221 207 221 223 222 221 183 171 189 217 188 130 211 199 161 137 119 119 107 91 82 77 78 81 93 100 108 107 99 98 95 92 93 93 92 92 91 87 80 79 75 76 80 80 76 75 71 72 74
205 219 226 220 219 206 174 182 160 125 148 152 173 26 72 123 131 126 115 99 86 73 72 80 88 93 98 102 101 98 93 89 91 91 87 93 95 90 83 70 69 71 75 76 74 73 72 71 75
203 223 228 225 223 196 180 197 182 179 191 197 188 146 129 140 147 147 149 141 117 100 81 73 91 95 100 100 104 100 97 97 95 96 93 93 89 82 79 74 66 67 71 75 71 73 77 67 66
207 225 221 215 218 200 193 205 206 211 225 220 207 183 165 163 171 171 167 161 152 134 99 77 87 94 96 96 97 93 97 95 91 86 84 91 91 87 80 78 70 63 63 65 71 72 54 46 42
200 223 221 212 197 207 216 213 225 235 247 246 205 181 175 176 181 190 185 174 161 141 134 125 103 98 96 101 97 95 98 97 88 85 86 91 86 80 72 66 63 54 45 38 34 44 43 33 25
213 214 217 221 201 205 217 231 244 246 253 225 167 171 181 180 182 188 193 182 169 158 148 143 119 115 114 109 97 95 97 96 94 87 80 83 93 90 82 69 61 53 46 40 27 31 37 27 12
199 204 219 235 230 229 226 247 242 242 230 183 176 185 191 188 183 185 194 199 192 180 168 151 136 131 126 119 113 103 96 94 93 88 79 76 76 80 88 78 59 46 35 28 16 20 14 15 0
177 207 231 234 229 218 223 244 233 234 218 207 199 196 192 195 190 196 199 203 201 190 178 161 150 135 131 123 114 102 97 104 97 91 84 77 71 70 70 67 53 33 22 22 12 23 10 7 349
199 219 231 210 215 212 223 249 230 210 213 216 213 208 201 200 200 201 201 200 197 190 179 167 149 145 141 131 124 105 103 100 94 92 88 80 72 62 63 63 45 26 19 16 13 7 356 346 335
209 227 232 222 213 217 225 252 239 202 211 217 216 214 210 205 205 204 198 193 191 189 178 170 163 157 151 137 124 113 103 94 92 90 84 79 74 63 54 49 42 33 32 27 14 2 344 331 331
219 227 233 235 225 232 237 249 247 223 222 227 221 218 219 219 218 210 198 183 179 182 177 170 162 158 148 133 125 114 105 97 93 87 77 78 74 62 54 55 47 41 35 22 9 5 348 324 322
236 234 246 252 257 244 249 258 257 241 229 232 228 221 219 223 224 209 195 179 170 174 175 171 166 159 150 147 150 148 150 142 118 88 86 82 75 69 58 52 50 32 19 9 0 356 339 345 337
225 239 250 256 250 254 265 266 260 241 236 236 233 228 221 215 209 202 196 184 182 181 180 176 176 169 165 162 156 165 172 179 138 100 96 89 80 73 65 57 37 4 330 355 357 330 323 332 337
232 239 246 254 276 251 277 265 242 235 234 238 238 235 229 219 212 208 205 200 192 191 191 187 181 175 171 158 141 134 133 141 176 181 188 297 224 148 130 200 241 266 278 279 272 272 289 293 304
236 235 238 242 249 254 247 272 247 233 233 234 234 229 227 221 216 212 209 206 202 199 193 192 186 182 175 170 173 176 186 202 214 216 224 228 228 220 211 221 228 235 251 261 264 270 280 272 276
221 198 225 239 245 259 234 251 261 231 244 241 233 229 226 223 218 214 210 206 201 195 191 192 186 186 186 188 189 194 202 211 206 206 213 222 226 230 220 221 224 234 245 256 262 266 266 258 263
168 157 176 215 230 247 230 230 261 232 245 248 232 227 224 219 219 216 208 200 195 188 187 189 189 193 193 194 197 202 203 203 204 215 218 221 224 233 230 228 231 237 244 254 261 258 256 254 255
190 191 211 214 218 237 197 229 253 254 252 251 242 228 218 213 210 208 204 201 196 193 193 193 194 198 196 199 203 206 208 213 218 222 222 226 229 236 240 245 243 244 248 253 255 256 254 251 250
201 210 220 236 237 238 202 235 249 264 273 265 247 231 222 216 209 205 206 207 205 203 203 200 200 203 202 203 206 208 211 220 226 229 233 235 239 241 242 247 253 247 243 247 249 254 254 252 251
194 213 240 252 279 257 236 249 270 242 250 240 221 211 213 213 207 204 203 206 208 212 213 209 205 206 206 207 208 210 213 222 227 230 235 241 245 244 240 246 253 255 246 244 247 248 255 257 257
234 182 178 206 231 244 247 245 239 214 224 212 204 206 210 207 214 215 208 210 215 221 220 215 213 211 210 209 210 214 218 223 227 228 233 242 248 247 245 250 252 254 251 246 248 254 255 259 260
182 190 210 211 241 247 254 245 214 224 219 208 211 213 219 219 228 226 227 227 224 225 221 216 215 213 211 211 213 217 219 220 222 224 228 235 243 245 247 248 251 252 253 252 252 255 259 261 262
228 217 206 217 221 231 257 267 88 230 229 222 231 246 257 251 252 245 241 236 231 227 226 221 217 215 215 213 215 219 218 217 221 226 229 231 239 242 243 242 246 250 251 252 253 255 255 257 259
Height
1515 1515 1516 1518 1517 1513 1511 1512 1513 1516 1518 1521 1522 1521 1519 1520 1522 1528 1529 1527 1527 1529 1530 1530 1531 1532 1533 1534 1534 1535 1535 1535 1536 1536 1536 1536 1536 1536 1536 1536 1536 1536 1536 1536 1536 1536 1536 1536 1535
1515 1516 1518 1518 1513 1512 1512 1512 1514 1516 1519 1522 1522 1522 1522 1524 1526 1527 1526 1526 1527 1529 1530 1531 1532 1533 1533 1534 1534 1535 1536 1536 1536 1536 1537 1537 1536 1537 1537 1537 1537 1537 1537 1537 1537 1537 1537 1536 1536
1515 1516 1518 1514 1512 1509 1510 1512 1514 1519 1521 1522 1523 1523 1524 1525 1526 1526 1526 1526 1527 1529 1530 1531 1532 1533 1533 1534 1535 1535 1536 1536 1537 1537 1537 1537 1537 1537 1537 1537 1537 1537 1537 1537 1537 1537 1537 1537 1537
1515 1518 1518 1514 1512 1512 1512 1514 1517 1519 1521 1522 1522 1524 1525 1526 1526 1526 1526 1527 1528 1529 1530 1531 1532 1533 1534 1534 1535 1536 1536 1537 1537 1537 1537 1538 1538 1538 1538 1538 1538 1538 1538 1538 1538 1538 1537 1537 1537
1515 1516 1514 1513 1511 1513 1515 1517 1519 1518 1519 1522 1522 1523 1525 1526 1525 1526 1526 1527 1528 1529 1530 1531 1532 1533 1533 1534 1535 1536 1536 1537 1537 1537 1537 1537 1538 1538 1538 1538 1538 1538 1538 1538 1538 1538 1538 1537 1537
1516 1514 1511 1510 1510 1513 1516 1518 1519 1518 1520 1522 1523 1523 1525 1525 1525 1526 1526 1527 1528 1529 1529 1530 1531 1532 1533 1534 1535 1536 1536 1537 1537 1537 1537 1537 1538 1538 1538 1538 1538 1538 1538 1538 1538 1538 1538 1538 1537
1515 1511 1508 1507 1510 1512 1515 1518 1518 1517 1519 1522 1522 1523 1524 1525 1525 1526 1526 1527 1528 1528 1529 1530 1531 1532 1533 1534 1535 1535 1536 1537 1537 1537 1537 1537 1537 1538 1538 1538 1538 1538 1538 1538 1538 1538 1538 1537 1537
1513 1512 1510 1508 1509 1510 1515 1518 1519 1519 1519 1522 1522 1522 1523 1525 1524 1525 1526 1527 1527 1528 1529 1530 1530 1531 1532 1533 1534 1535 1536 1536 1537 1537 1537 1537 1538 1538 1538 1538 1538 1538 1538 1538 1537 1537 1537 1537 1537
1513 1513 1507 1506 1508 1510 1515 1517 1519 1519 1520 1521 1521 1522 1523 1523 1523 1525 1526 1526 1527 1527 1528 1529 1529 1530 1531 1532 1533 1534 1535 1536 1536 1536 1537 1537 1537 1537 1538 1537 1537 1537 1537 1537 1537 1537 1537 1537 1536
1512 1508 1506 1508 1510 1511 1514 1516 1518 1519 1519 1520 1521 1521 1521 1522 1523 1524 1524 1525 1526 1526 1527 1528 1529 1529 1530 1531 1532 1533 1534 1535 1535 1536 1536 1536 1537 1537 1537 1537 1537 1537 1537 1536 1536 1536 1536 1536 1536
1510 1507 1509 1511 1512 1513 1514 1516 1518 1517 1516 1518 1519 1519 1520 1521 1522 1523 1523 1524 1525 1525 1526 1527 1527 1528 1529 1530 1531 1532 1533 1533 1534 1534 1535 1535 1536 1536 1536 1536 1536 1536 1536 1536 1536 1536 1535 1535 1535
1510 1511 1511 1512 1513 1514 1515 1515 1516 1516 1516 1517 1517 1518 1519 1519 1521 1521 1522 1523 1523 1524 1524 1525 1526 1527 1528 1529 1530 1531 1532 1532 1533 1533 1533 1534 1534 1535 1535 1535 1535 1535 1534 1534 1534 1534 1534 1534 1534
1510 1511 1512 1513 1514 1514 1515 1515 1515 1515 1516 1515 1516 1516 1517 1517 1519 1520 1521 1521 1522 1522 1523 1523 1524 1526 1527 1528 1528 1529 1530 1531 1531 1532 1532 1533 1533 1534 1534 1533 1533 1533 1533 1533 1533 1533 1533 1533 1532
1510 1511 1512 1513 1513 1514 1514 1514 1515 1513 1514 1514 1514 1515 1516 1516 1517 1518 1518 1519 1519 1520 1521 1521 1522 1524 1525 1526 1527 1527 1528 1529 1530 1530 1530 1531 1532 1532 1532 1532 1532 1532 1532 1531 1531 1531 1531 1530 1530
1512 1511 1511 1511 1512 1513 1513 1511 1511 1511 1513 1513 1513 1514 1514 1514 1515 1515 1516 1517 1518 1518 1519 1519 1520 1522 1523 1524 1525 1526 1526 1527 1528 1528 1529 1529 1530 1530 1530 1530 1530 1530 1530 1529 1529 1529 1529 1528 1528
1510 1509 1506 1509 1511 1511 1513 1504 1506 1509 1510 1511 1512 1512 1512 1513 1513 1514 1514 1515 1516 1516 1517 1517 1518 1519 1520 1521 1523 1524 1525 1526 1526 1527 1527 1528 1528 1528 1528 1528 1528 1528 1528 1528 1527 1527 1527 1526 1526
1507 1503 1502 1506 1509 1509 1509 1502 1504 1507 1508 1509 1510 1510 1510 1511 1511 1512 1512 1513 1513 1514 1515 1515 1516 1517 1518 1519 1520 1522 1523 1523 1524 1525 1525 1525 1526 1526 1526 1526 1526 1526 1526 1526 1525 1525 1525 1524 1523
1501 1501 1502 1504 1507 1508 1506 1502 1503 1505 1506 1506 1507 1508 1508 1509 1509 1510 1510 1510 1511 1512 1512 1513 1514 1515 1516 1517 1518 1519 1520 1521 1522 1523 1523 1523 1524 1524 1524 1524 1524 1524 1524 1524 1523 1523 1522 1522 1521
1503 1502 1502 1503 1508 1508 1503 1500 1500 1502 1503 1503 1504 1505 1505 1506 1508 1508 1508 1508 1509 1509 1510 1510 1511 1512 1513 1514 1516 1516 1518 1519 1520 1520 1521 1521 1521 1522 1522 1522 1522 1522 1522 1521 1521 1520 1520 1519 1518
1505 1504 1502 1505 1509 1507 1502 1498 1497 1498 1499 1499 1500 1501 1502 1503 1504 1505 1506 1506 1506 1507 1508 1508 1509 1510 1511 1512 1513 1515 1516 1517 1517 1518 1518 1519 1519 1519 1519 1519 1519 1519 1519 1519 1518 1518 1518 1517 1517
1505 1504 1503 1505 1508 1507 1504 1493 1492 1493 1496 1497 1497 1498 1499 1500 1501 1502 1503 1503 1504 1504 1505 1506 1507 1508 1509 1510 1511 1513 1513 1514 1515 1515 1516 1516 1516 1516 1517 1517 1517 1517 1517 1516 1516 1516 1516 1515 1515
1502 1505 1506 1507 1505 1500 1503 1490 1483 1487 1490 1492 1493 1494 1496 1497 1498 1499 1500 1501 1501 1502 1503 1504 1505 1506 1506 1507 1509 1510 1510 1511 1512 1512 1513 1513 1514 1514 1514 1514 1514 1514 1514 1514 1514 1514 1513 1513 1512
1504 1507 1507 1506 1504 1503 1500 1498 1480 1486 1486 1486 1488 1490 1492 1493 1494 1496 1496 1497 1499 1500 1500 1501 1502 1503 1504 1505 1506 1507 1508 1509 1509 1510 1510 1511 1511 1511 1511 1511 1511 1511 1511 1511 1511 1510 1510 1510 1509
1507 1508 1508 1507 1504 1503 1494 1493 1478 1479 1480 1482 1485 1487 1489 1490 1491 1493 1494 1495 1496 1497 1498 1499 1499 1500 1501 1502 1503 1504 1505 1505 1506 1506 1507 1507 1507 1508 1508 1508 1508 1508 1507 1507 1507 1507 1507 1506 1506
1506 1504 1502 1500 1499 1489 1494 1492 1480 1478 1480 1482 1483 1485 1486 1487 1489 1490 1491 1492 1493 1494 1495 1496 1497 1497 1498 1499 1500 1501 1502 1502 1503 1503 1504 1504 1504 1504 1505 1505 1504 1504 1504 1504 1504 1503 1503 1503 1502
1501 1500 1496 1492 1486 1481 1496 1487 1476 1480 1482 1482 1483 1484 1484 1485 1486 1487 1488 1489 1490 1491 1492 1493 1493 1494 1495 1496 1497 1498 1498 1499 1500 1500 1500 1501 1501 1501 1501 1501 1501 1501 1501 1500 1500 1500 1499 1499 1498
1500 1499 1498 1498 1501 1493 1481 1481 1478 1479 1480 1480 1481 1482 1483 1484 1485 1485 1486 1487 1488 1488 1489 1490 1490 1491 1492 1493 1494 1494 1495 1495 1496 1496 1497 1497 1497 1497 1497 1497 1497 1497 1497 1497 1496 1496 1496 1495 1494
1501 1499 1501 1498 1492 1482 1476 1476 1470 1473 1474 1477 1479 1480 1481 1482 1483 1483 1484 1484 1485 1486 1487 1487 1488 1488 1489 1489 1490 1491 1491 1492 1492 1493 1493 1494 1494 1494 1494 1494 1494 1493 1493 1493 1493 1492 1491 1491 1490
1501 1502 1497 1493 1491 1482 1474 1468 1470 1472 1473 1476 1478 1479 1480 1480 1481 1481 1482 1482 1482 1483 1484 1484 1485 1485 1485 1486 1487 1487 1488 1488 1489 1489 1490 1490 1490 1490 1490 1490 1490 1490 1489 1489 1489 1488 1487 1487 1486
1498 1495 1495 1492 1491 1490 1478 1472 1473 1474 1475 1476 1477 1478 1479 1479 1479 1480 1480 1480 1480 1481 1481 1481 1481 1482 1482 1483 1483 1484 1484 1484 1485 1486 1486 1486 1486 1486 1486 1486 1486 1486 1486 1485 1485 1484 1483 1483 1482